GOSAT-GW (IBUKI GW) (64694 NORAD) Tracking and Keplerian Element Data

This shows tracking and keplerian element data for the satellite.

Feedback or suggestion? Click here.




ElementValue
Catalog64694
NameGOSAT-GW (IBUKI GW)
Epoch Orbit2560
Epoch Day354.28242215
Epoch Year2025
RAAN289.6587
Inclination98.0435
Eccentricity0.000144
Argument of Perigee84.071
Mean Anonmoly276.0659
Mean Motion14.67565151
Decay Rate4.3E-06
L11 64694U 25141A 25354.28242215 .00000430 00000+0 84143-4 0 9997
L22 64694 98.0435 289.6587 0001440 84.0710 276.0659 14.67565151 25603



Live tracking and technical data element details for GOSAT-GW (IBUKI GW) (NORAD 64694). GOSAT-GW (IBUKI GW) can be tracked NOW for your location showing map with azimuth and elevation plus other details from your city location.







IsCatalogInMostPopularTable: catalog: 64694, numindb: 12
Update: records affected: 1



GetName: 64694 GOSAT-GW (IBUKI GW)

Hit Count: updated at: Sat, 11 Apr 2026 22:00:18 GMT